Chongqing, China

7:39 AM CST on November 15, 2019 (GMT +0800)
Jiangbei

Weather History for ZUCK - September, 2019

Change the Weather History Date:

Wednesday, September 11, 2019

  Actual Average (WUND) Record (WUND)
Temperature  
Mean Temperature 86 °F -  
Max Temperature 95 °F - - (-1)
Min Temperature 77 °F - - (-1)
Cooling Degree Days 21    
Growing Degree Days 36 (Base 50)    
Moisture  
Dew Point 73 °F    
Average Humidity 67    
Maximum Humidity 100    
Minimum Humidity 32    
Precipitation  
Precipitation 0.00 in - - ()
Sea Level Pressure  
Sea Level Pressure 29.78 in    
Wind  
Wind Speed 4 mph ()    
Max Wind Speed 11 mph    
Max Gust Speed 22 mph    
Visibility 8.7 miles    
Events Rain    
Averages and records for this station are not official NWS values.
T = Trace of Precipitation, MM = Missing Value Source: Averaged Metar Reports

Daily Weather History Graph

Daily Weather History Graph

Search for Another Location

Airport or City:

Astronomy

Sep. 11, 2019 Rise Set
Actual Time 6:35 AM CST 7:04 PM CST
Civil Twilight 6:11 AM CST 7:28 PM CST
Nautical Twilight 5:43 AM CST 7:56 PM CST
Astronomical Twilight 5:14 AM CST 8:25 PM CST
Moon 5:41 PM CST (9/11) 3:45 AM CST (9/11)
Length of Visible Light 13h 16m
Length of Day
12h 28m
Waxing Gibbous, 92% of the Moon is Illuminated
Sep 11
Waxing Gibbous
Sep 14
Full
Sep 22
Last Quarter
Sep 29
New
Oct 6
First Quarter

Hourly Weather History & Observations

Time (CST) Temp. Heat Index Dew Point Humidity Pressure Visibility Wind Dir Wind Speed Gust Speed Precip Events Conditions
12:00 AM 80.6 °F 87.1 °F 77.0 °F 89% 29.83 in - Variable 2.2 mph - N/A   Clear
1:00 AM 78.8 °F - 77.0 °F 94% 29.83 in - South 2.2 mph - N/A   Clear
2:00 AM 80 °F - 76 °F 82% 29.72 in 8 mi NW 2.2 mph - -  
3:00 AM 78.8 °F - 77.0 °F 94% 29.80 in - Variable 2.2 mph - N/A   Clear
4:00 AM 77.0 °F - 77.0 °F 100% 29.80 in - South 2.2 mph - N/A   Clear
5:00 AM 79 °F - 74 °F 81% 29.73 in 11 mi South 2.2 mph - - Rain Light Rain
5:00 AM 77.0 °F - 75.2 °F 94% 29.80 in - South 4.5 mph - N/A   Clear
6:00 AM 77.0 °F - 77.0 °F 100% 29.80 in - SSE 2.2 mph - N/A   Clear
7:00 AM 77.0 °F - 75.2 °F 94% 29.83 in - South 4.5 mph - N/A   Clear
8:00 AM 80 °F - 75 °F 79% 29.77 in 5 mi Calm Calm - -   Overcast
8:00 AM 77.0 °F - 75.2 °F 94% 29.86 in - SSE 4.5 mph - N/A   Clear
10:00 AM 86.0 °F 96.9 °F 77.0 °F 74% 29.86 in - East 4.5 mph - N/A   Clear
11:00 AM 90 °F - 75 °F 54% 29.77 in 8 mi ENE 2.2 mph - -   Scattered Clouds
11:00 AM 87.8 °F 97.6 °F 75.2 °F 66% 29.86 in 6.2 mi SSE 8.9 mph - N/A   Partly Cloudy
12:00 PM 91.4 °F 100.1 °F 73.4 °F 55% 29.83 in 6.2 mi SSE 8.9 mph - N/A   Scattered Clouds
1:00 PM 93.2 °F 102.4 °F 73.4 °F 52% 29.80 in 6.2 mi South 11.2 mph - N/A   Scattered Clouds
2:00 PM 93.2 °F 98.8 °F 69.8 °F 46% 29.80 in - SE 11.2 mph 22.4 mph N/A   Clear
3:00 PM 93.2 °F 98.8 °F 69.8 °F 46% 29.77 in 6.2 mi South 11.2 mph - N/A   Mostly Cloudy
4:00 PM 93.2 °F 100.5 °F 71.6 °F 49% 29.74 in 6.2 mi SSE 6.7 mph - N/A   Mostly Cloudy
5:00 PM 95 °F - 69 °F 32% 29.65 in 19 mi SSE 6.7 mph - -   Mostly Cloudy
5:00 PM 93.2 °F 98.8 °F 69.8 °F 46% 29.74 in - SE 11.2 mph - N/A   Clear
6:00 PM 93.2 °F 98.8 °F 69.8 °F 46% 29.74 in - SE 8.9 mph - N/A   Clear
7:00 PM 91.4 °F 96.8 °F 69.8 °F 49% 29.74 in - ESE 8.9 mph - N/A   Clear
8:00 PM 91 °F - 70 °F 40% 29.67 in 11 mi SSE 4.5 mph - -   Mostly Cloudy
9:00 PM 87.8 °F 92.6 °F 69.8 °F 55% 29.80 in - SE 8.9 mph - N/A   Clear
10:00 PM 86.0 °F 90.4 °F 69.8 °F 58% 29.83 in - SE 6.7 mph - N/A   Clear
11:00 PM 85 °F - 74 °F 62% 29.73 in 11 mi NW 4.5 mph - -  
11:00 PM 86.0 °F 90.4 °F 69.8 °F 58% 29.83 in - SSE 4.5 mph - N/A   Clear